#timestamp,LO_Frequency,Hit,StdDev 
1584163875.3,286047045.1,P
1584163895.1,286047043.1,P
1584163915.9,286047043.9,P
1584163935.7,286047043.9,Y
1584163955.6,286046998.5,P
1584163975.4,286047011.9,N
1584163995.2,286047001.7,N
1584164015.1,286047004.9,N
1584164016.0,286047004.9,N
1584164035.8,286047009.2,N
1584164055.7,286047006.3,N
1584164075.5,286047008.7,N
1584164095.3,286047008.9,N
1584164115.2,286047004.9,N
1584164135.9,286047007.1,N
1584164155.7,286047007.3,N
1584164175.6,286047008.4,N
1584164195.4,286047010.0,N
1584164215.3,286047010.2,N
1584164235.1,286047009.8,N
1584164236.0,286047009.8,N
1584164255.8,286047011.6,N
1584164275.7,286047011.0,N
1584164295.5,286047014.0,N
1584164315.3,286047012.7,N
1584164335.2,286047014.2,N
1584164355.0,286047012.5,N
1584164355.9,286047012.5,N
1584164375.8,286047013.0,N
1584164395.6,286047014.8,N
1584164415.4,286047016.7,N
1584164435.3,286047015.7,N
1584164455.1,286047016.2,N
1584164475.8,286047015.7,N
1584164495.7,286047015.7,Y
1584164515.5,286047008.8,P
1584164535.4,286047008.9,P
1584164555.2,286047009.0,P
1584164575.0,286047004.9,Y
1584164575.9,286047004.9,P
1584164595.8,286046995.9,N
1584164615.6,286046993.5,N
1584164635.5,286046993.8,N
1584164655.3,286046994.7,N
1584164675.1,286046991.7,N
1584164695.9,286046994.1,N
1584164715.7,286046997.4,N
1584164735.6,286046998.7,N
1584164755.4,286047002.3,N
1584164775.2,286047002.0,N
1584164795.1,286047003.7,N
1584164796.0,286047003.7,N
1584164815.8,286047004.4,N
1584164835.6,286047004.3,N
1584164855.5,286047003.7,N
1584164875.3,286047003.5,N
1584164895.2,286047004.9,N
1584164915.9,286047006.5,N
1584164935.7,286047007.1,N
1584164955.6,286047006.7,N
1584164975.4,286047007.3,N
1584164995.2,286047003.2,N
1584165015.1,286047002.5,N
1584165016.0,286047002.5,N
1584165035.8,286047000.3,N
1584165055.7,286046998.8,N
1584165075.5,286046998.4,N
1584165095.3,286047002.7,N
1584165115.2,286047002.7,N
1584165135.0,286046998.7,N
1584165135.9,286046998.7,N
1584165155.7,286046999.3,N
1584165175.6,286046998.6,N
1584165195.4,286047004.3,N
1584165215.3,286047003.1,N
1584165235.1,286047003.3,N
1584165255.8,286047003.1,N
1584165275.7,286047002.9,N
1584165295.5,286047003.8,N
1584165315.4,286047002.3,N
1584165335.2,286047001.7,N
1584165355.0,286047004.1,N
1584165355.9,286047004.1,N
1584165375.8,286047003.2,N
1584165395.6,286047007.6,Y
1584165415.4,286047002.3,P
1584165435.3,286047003.7,P
1584165455.1,286047004.7,P
1584165475.9,286047005.0,Y
1584165495.7,286047003.9,P
1584165515.5,286047002.1,P
1584165535.4,286047000.6,N
1584165555.2,286046998.4,N
1584165575.0,286047001.2,N
1584165575.9,286047001.2,N
1584165595.8,286047000.0,N
